This is the latest recevied weather packets stored in our database for station/object IU7URP-13. If no packets are shown the sender has not sent any weather packets the latest 10 day(s).
| Time | Temp. | Humidity | Pressure | Rain* | Wind** | Luminosity | Snow |
|---|---|---|---|---|---|---|---|
| 1778049881 | 17.78° C | 99% | 1019.6 hPa | - | - | - | - |
| 1778049044 | 17.22° C | 99% | 1019.5 hPa | - | - | - | - |
| 1778047843 | 17.78° C | 99% | 1019.5 hPa | - | - | - | - |
| 1778046641 | 17.22° C | 99% | 1019.6 hPa | - | - | - | - |
| 1778045440 | 16.67° C | 99% | 1019.4 hPa | - | - | - | - |
| 1778044239 | 16.11° C | 99% | 1019.3 hPa | - | - | - | - |
| 1778043445 | 16.11° C | 99% | 1019.3 hPa | - | - | - | - |
| 1778042244 | 16.11° C | 99% | 1019.2 hPa | - | - | - | - |
| 1778041037 | 15.56° C | 99% | 1019 hPa | - | - | - | - |
| 1778040175 | 15.56° C | 99% | 1019 hPa | - | - | - | - |
| 1778038974 | 15.56° C | 99% | 1018.9 hPa | - | - | - | - |
| 1778038563 | 16.11° C | 99% | 1019 hPa | - | - | - | - |
| 1778037362 | 15.56° C | 99% | 1019 hPa | - | - | - | - |
| 1778037271 | 15.56° C | 99% | 1019 hPa | - | - | - | - |
| 1778036069 | 15.56° C | 99% | 1018.9 hPa | - | - | - | - |
| 1778034868 | 15.56° C | 99% | 1018.8 hPa | - | - | - | - |
| 1778033667 | 15.56° C | 99% | 1019 hPa | - | - | - | - |
| 1778032465 | 15.56° C | 99% | 1019.1 hPa | - | - | - | - |
| 1778031264 | 15.56° C | 99% | 1019.3 hPa | - | - | - | - |
| 1778030063 | 15.56° C | 99% | 1019.5 hPa | - | - | - | - |
| 1778028862 | 15.56° C | 99% | 1019.3 hPa | - | - | - | - |
| 1778027660 | 15.56° C | 99% | 1019.2 hPa | - | - | - | - |
| 1778026459 | 15.56° C | 99% | 1019.3 hPa | - | - | - | - |
| 1778025258 | 15.56° C | 99% | 1019.3 hPa | - | - | - | - |
| 1778024056 | 15.56° C | 99% | 1019.5 hPa | - | - | - | - |
* Rain since midnight (hover to see other rain measurements)
** Current wind speed in m/s (hover to see current wind gust speed)